Regional Weather Roundup
Issued by NWS

Home | Current Version | Previous Version | Text Only | Print | Product List | Glossary Off
Versions: 1 2 3 4 5 6 7 8 9 10 11 12 13 14 15 16 17 18 19 20 21 22 23 24 25 26 27 28 29 30 31 32 33 34 35 36 37 38 39 40 41 42 43 44 45 46 47 48 49 50

000
ASUS43 KBIS 171902
RWRND

NORTH DAKOTA REGIONAL WEATHER ROUNDUP
NATIONAL WEATHER SERVICE BISMARCK ND
200 PM CDT THU AUG 17 2017

NOTE: "FAIR" INDICATES FEW OR NO CLOUDS BELOW 12,000 FEET WITH NO
SIGNIFICANT WEATHER AND/OR OBSTRUCTIONS TO VISIBILITY.


NDZ001>003-009>011-017-172000-
NORTHWEST NORTH DAKOTA

CITY           SKY/WX    TMP DP  RH WIND       PRES   REMARKS
WILLISTON      SUNNY     82  58  43 SW6       29.83F
MINOT          SUNNY     84  48  28 SE8G24    29.84F
MINOT AFB      SUNNY     83  46  27 S10       29.82F
$$

NDZ018>021-031>035-040>046-172000-
SOUTHWEST NORTH DAKOTA

CITY           SKY/WX    TMP DP  RH WIND       PRES   REMARKS
BISMARCK       SUNNY     81  51  35 SE14      29.86F
DICKINSON      SUNNY     83  49  30 W7        29.86F
GARRISON         N/A     78  56  46 S12       29.84F
HETTINGER ARPT MOSUNNY   82  52  35 W6        29.90S
$$

NDZ004>008-012>016-024-026-027-054-172000-
NORTHEAST NORTH DAKOTA

CITY           SKY/WX    TMP DP  RH WIND       PRES   REMARKS
GRAND FORKS    MOSUNNY   76  64  66 NW8       29.84S
GRND FRKS AFB  SUNNY     75  61  62 N6        29.86S
DEVILS LAKE    MOSUNNY   76  54  46 W7        29.88F
$$

NDZ022-023-025-028>030-036>039-047>053-172000-
SOUTHEAST NORTH DAKOTA

CITY           SKY/WX    TMP DP  RH WIND       PRES   REMARKS
FARGO          SUNNY     77  62  59 N15       29.83S
JAMESTOWN      SUNNY     77  56  48 CALM      29.88F
$$





USA.gov is the U.S. government's official web portal to all federal, state and local government web resources and services.